When you browse on this site, cookies collect data to enhance your experience and personalize the content and advertising you see.
Visit our Privacy Policy to learn more. By continuing to use the site, you agree to this use of cookies and data.
  • In Hungary
  • List of Countries
  • For 7 days
  • Water Temperature
  • Weather Map
  • News
  • Weather Widgets
  • user-avatar
    Login

    Hourly Weather Kachelino

    Today, 21 August, Wednesday

    Time Temperature Precipitation Wind Pressure Humidity
    00:00 +17°C° 0 mm 2 mps 757 mmHg 95%
    01:00 +17°C° 0 mm 2 mps 757 mmHg 95%
    02:00 +17°C° 0 mm 2 mps 757 mmHg 95%
    03:00 +16°C° 0 mm 2 mps 757 mmHg 95%
    04:00 +17°C° 0 mm 2 mps 757 mmHg 94%
    05:00 +17°C° 0 mm 2 mps 758 mmHg 94%
    06:00 +18°C° 0 mm 3 mps 758 mmHg 93%
    07:00 +19°C° 0 mm 3 mps 758 mmHg 88%
    08:00 +21°C° 0 mm 3 mps 758 mmHg 83%
    09:00 +22°C° 0 mm 3 mps 758 mmHg 78%
    10:00 +24°C° 0 mm 3 mps 758 mmHg 75%
    11:00 +24°C° 0 mm 3 mps 758 mmHg 71%
    12:00 +25°C° 0 mm 3 mps 758 mmHg 68%
    13:00 +25°C° 0 mm 3 mps 758 mmHg 68%
    14:00 +25°C° 0 mm 3 mps 758 mmHg 67%
    15:00 +25°C° 0 mm 2 mps 758 mmHg 67%
    16:00 +25°C° 0 mm 2 mps 758 mmHg 71%
    17:00 +24°C° 0 mm 2 mps 758 mmHg 75%
    18:00 +23°C° 0 mm 2 mps 758 mmHg 79%
    19:00 +21°C° 0 mm 2 mps 758 mmHg 82%
    20:00 +21°C° 0 mm 1 mps 758 mmHg 84%
    21:00 +20°C° 0 mm 1 mps 758 mmHg 87%
    22:00 +19°C° 0 mm 1 mps 758 mmHg 88%
    23:00 +19°C° 0 mm 1 mps 758 mmHg 90%

    Tomorrow, 22 August, Thursday

    Time Temperature Precipitation Wind Pressure Humidity
    00:00 +16°C° 0 mm 0 mps 758 mmHg 91%
    01:00 +18°C° 0 mm 1 mps 758 mmHg 92%
    02:00 +18°C° 0 mm 1 mps 759 mmHg 92%
    03:00 +18°C° 0 mm 1 mps 759 mmHg 93%
    04:00 +18°C° 0 mm 1 mps 759 mmHg 92%
    05:00 +19°C° 0 mm 1 mps 758 mmHg 91%
    06:00 +19°C° 0 mm 1 mps 758 mmHg 91%
    07:00 +21°C° 0 mm 1 mps 758 mmHg 85%
    08:00 +22°C° 0 mm 1 mps 758 mmHg 80%
    09:00 +23°C° 0 mm 1 mps 758 mmHg 75%
    10:00 +24°C° 0 mm 2 mps 758 mmHg 72%
    11:00 +25°C° 0 mm 2 mps 758 mmHg 69%
    12:00 +26°C° 0 mm 2 mps 757 mmHg 66%
    13:00 +26°C° 0 mm 3 mps 757 mmHg 66%
    14:00 +26°C° 0 mm 3 mps 757 mmHg 67%
    15:00 +26°C° 0 mm 3 mps 757 mmHg 67%
    16:00 +25°C° 0 mm 3 mps 757 mmHg 72%
    17:00 +24°C° 0 mm 3 mps 756 mmHg 76%
    18:00 +22°C° 0 mm 3 mps 756 mmHg 81%
    19:00 +21°C° 0 mm 3 mps 756 mmHg 82%
    20:00 +20°C° 0 mm 3 mps 756 mmHg 83%
    21:00 +19°C° 0 mm 3 mps 756 mmHg 84%
    22:00 +19°C° 0 mm 3 mps 756 mmHg 86%
    23:00 +18°C° 0 mm 3 mps 756 mmHg 87%

    Day after tomorrow, 23 August, Friday

    Time Temperature Precipitation Wind Pressure Humidity
    00:00 +18°C° 0 mm 3 mps 756 mmHg 89%
    01:00 +18°C° 0 mm 3 mps 756 mmHg 89%
    02:00 +18°C° 0 mm 3 mps 756 mmHg 90%
    03:00 +18°C° 0 mm 3 mps 756 mmHg 91%
    04:00 +18°C° 0.3 mm 3 mps 756 mmHg 92%
    05:00 +18°C° 0.3 mm 4 mps 756 mmHg 93%
    06:00 +19°C° 0.3 mm 4 mps 756 mmHg 94%
    07:00 +18°C° 0 mm 4 mps 757 mmHg 90%
    08:00 +18°C° 0 mm 4 mps 757 mmHg 85%
    09:00 +18°C° 0 mm 4 mps 758 mmHg 81%
    10:00 +19°C° 0 mm 4 mps 758 mmHg 75%
    11:00 +20°C° 0 mm 4 mps 758 mmHg 70%
    12:00 +21°C° 0 mm 4 mps 758 mmHg 64%
    13:00 +21°C° 0 mm 4 mps 758 mmHg 61%
    14:00 +22°C° 0 mm 4 mps 758 mmHg 59%
    15:00 +22°C° 0 mm 4 mps 758 mmHg 56%
    16:00 +21°C° 0 mm 3 mps 758 mmHg 61%
    17:00 +20°C° 0 mm 3 mps 758 mmHg 67%
    18:00 +19°C° 0 mm 2 mps 758 mmHg 73%
    19:00 +18°C° 0 mm 2 mps 758 mmHg 75%
    20:00 +17°C° 0 mm 2 mps 758 mmHg 77%
    21:00 +16°C° 0 mm 2 mps 758 mmHg 79%
    22:00 +15°C° 0 mm 2 mps 758 mmHg 80%
    23:00 +15°C° 0 mm 2 mps 759 mmHg 81%

    24 August, Saturday

    Time Temperature Precipitation Wind Pressure Humidity
    00:00 +15°C° 0 mm 2 mps 759 mmHg 83%
    01:00 +14°C° 0 mm 2 mps 759 mmHg 84%
    02:00 +14°C° 0 mm 2 mps 759 mmHg 86%
    03:00 +13°C° 0 mm 2 mps 759 mmHg 88%
    04:00 +14°C° 0 mm 2 mps 759 mmHg 88%
    05:00 +14°C° 0 mm 2 mps 759 mmHg 88%
    06:00 +14°C° 0 mm 2 mps 759 mmHg 87%
    07:00 +16°C° 0 mm 2 mps 759 mmHg 82%
    08:00 +17°C° 0 mm 2 mps 759 mmHg 77%
    09:00 +19°C° 0 mm 3 mps 759 mmHg 71%
    10:00 +20°C° 0 mm 3 mps 759 mmHg 68%
    11:00 +21°C° 0 mm 3 mps 759 mmHg 64%
    12:00 +21°C° 0 mm 3 mps 759 mmHg 60%
    13:00 +21°C° 0 mm 3 mps 759 mmHg 60%
    14:00 +22°C° 0 mm 3 mps 758 mmHg 59%
    15:00 +22°C° 0 mm 3 mps 758 mmHg 59%
    16:00 +21°C° 0 mm 3 mps 758 mmHg 64%
    17:00 +20°C° 0 mm 2 mps 758 mmHg 68%
    18:00 +19°C° 0 mm 2 mps 758 mmHg 73%
    19:00 +19°C° 0 mm 1 mps 758 mmHg 76%
    20:00 +16°C° 0 mm 1 mps 758 mmHg 78%
    21:00 +15°C° 0 mm 1 mps 758 mmHg 81%
    22:00 +15°C° 0 mm 1 mps 758 mmHg 82%
    23:00 +15°C° 0 mm 1 mps 758 mmHg 82%

    25 August, Sunday

    Time Temperature Precipitation Wind Pressure Humidity
    00:00 +14°C° 0 mm 2 mps 758 mmHg 83%
    01:00 +14°C° 0 mm 2 mps 757 mmHg 85%
    02:00 +14°C° 0 mm 2 mps 757 mmHg 87%
    03:00 +13°C° 0 mm 2 mps 757 mmHg 89%
    04:00 +13°C° 0 mm 3 mps 757 mmHg 89%
    05:00 +13°C° 0 mm 3 mps 756 mmHg 88%
    06:00 +14°C° 0 mm 3 mps 756 mmHg 87%
    07:00 +15°C° 0 mm 4 mps 756 mmHg 81%
    08:00 +17°C° 0 mm 5 mps 755 mmHg 76%
    09:00 +19°C° 0 mm 5 mps 755 mmHg 70%
    10:00 +20°C° 0 mm 6 mps 754 mmHg 67%
    11:00 +21°C° 0 mm 6 mps 754 mmHg 64%
    12:00 +22°C° 0 mm 7 mps 753 mmHg 61%
    13:00 +22°C° 0.4 mm 7 mps 753 mmHg 65%
    14:00 +21°C° 0.4 mm 6 mps 753 mmHg 70%
    15:00 +20°C° 0.4 mm 6 mps 753 mmHg 74%
    16:00 +19°C° 0.6 mm 6 mps 752 mmHg 77%
    17:00 +19°C° 0.6 mm 5 mps 752 mmHg 81%
    18:00 +17°C° 0.6 mm 5 mps 752 mmHg 85%
    19:00 +17°C° 0.2 mm 4 mps 752 mmHg 86%
    20:00 +15°C° 0.2 mm 4 mps 752 mmHg 87%
    21:00 +15°C° 0.2 mm 4 mps 752 mmHg 88%
    22:00 +14°C° 0.1 mm 4 mps 753 mmHg 88%
    23:00 +13°C° 0.1 mm 4 mps 753 mmHg 89%

    26 August, Monday

    Time Temperature Precipitation Wind Pressure Humidity
    00:00 +12°C° 0.1 mm 4 mps 753 mmHg 90%
    01:00 +11°C° 0 mm 4 mps 753 mmHg 91%
    02:00 +11°C° 0 mm 4 mps 754 mmHg 93%
    03:00 +10°C° 0 mm 4 mps 754 mmHg 95%
    04:00 +9°C° 0 mm 5 mps 754 mmHg 93%
    05:00 +9°C° 0 mm 5 mps 755 mmHg 92%
    06:00 +10°C° 0 mm 5 mps 755 mmHg 90%
    07:00 +11°C° 0 mm 6 mps 756 mmHg 85%
    08:00 +11°C° 0 mm 6 mps 756 mmHg 80%
    09:00 +12°C° 0 mm 7 mps 757 mmHg 75%
    10:00 +14°C° 0 mm 7 mps 757 mmHg 73%
    11:00 +14°C° 0 mm 7 mps 757 mmHg 71%
    12:00 +14°C° 0 mm 7 mps 757 mmHg 68%
    13:00 +15°C° 0 mm 7 mps 758 mmHg 67%
    14:00 +15°C° 0 mm 7 mps 758 mmHg 65%
    15:00 +15°C° 0 mm 6 mps 758 mmHg 63%
    16:00 +14°C° 0 mm 5 mps 758 mmHg 66%
    17:00 +13°C° 0 mm 5 mps 758 mmHg 70%
    18:00 +12°C° 0 mm 4 mps 759 mmHg 73%
    19:00 +11°C° 0 mm 4 mps 759 mmHg 76%
    20:00 +10°C° 0 mm 3 mps 759 mmHg 78%
    21:00 +8°C° 0 mm 3 mps 760 mmHg 81%
    22:00 +8°C° 0 mm 3 mps 760 mmHg 81%
    23:00 +8°C° 0 mm 3 mps 760 mmHg 81%
    Show more